User: anonymous   Login
Location: Anjeux
(47.8815°N, 6.2076°E)
Time: 02:20:56
(UTC+00:00)
Language:

KKS-1 - Orbit

View from above orbital plane
View from above orbital plane
View from above satellite
View from above satellite

Ground track
Ground track

The orbit data is extracted from the following two-line orbital elements,

1 33499U 09002H   21332.56035593  .00000243  00000-0  43376-4 0  9992
2 33499  98.2427 205.9578 0007969 232.9132 127.1348 14.75744145690611
Epoch (UTC): 28 November 2021 13:26:54
Eccentricity: 0.0007969
inclination: 98.2427°
perigee height: 637 km
apogee height: 648 km
right ascension of ascending node: 205.9578°
argument of perigee: 232.9132°
revolutions per day: 14.75744145
mean anomaly at epoch: 127.1348°
orbit number at epoch: 69061

The dashed part of the orbit path shows where the satellite is in the earth's shadow,  

DLR